Location: Runa
(38.1429°N, 80.8510°W)
Time: 23:07:35
(UTC+00:00)

ISS - Pass Details

Date: 24 April 2026
Orbit: 414 x 424 km, 51.6° (Epoch: 15 May)

Event Time Altitude Azimuth Distance (km) Brightness Sun altitude
Exits shadow 09:43:18 - 298° (WNW) 1,975 -0.7 -10.4°
Reaches altitude 10° 09:45:26 10° 325° (NW) 1,501 -1.0 -10.0°
Maximum altitude 09:46:35 11° 345° (NNW) 1,423 -0.9 -9.8°
Drops below altitude 10° 09:47:44 10° 5° (N) 1,504 -0.5 -9.6°
Sets 09:51:08 0° 41° (NE) 2,374 1.4 -9.0°
